Simultaneous Nadir Overpasses (SNOs) Predictions

Prediction of SNOs between GOES-16 and METOP-C Satellite Orbit:

Table of predicted SNOs for the next 14.0 days since TLE Epoch: 5/28/2023
Index Date Time (GOES-16) GOES-16 Lat,Lon METOP-C Lat,Lon Distance(km) Time Diff (sec)
1 05/29/2023 02:49:52 0.02, -75.20 -0.96, -79.44 483.31 80
2 05/30/2023 02:26:33 0.02, -75.21 0.21, -74.45 86.87 80
3 05/31/2023 14:48:02 -0.01, -75.23 0.80, -79.01 430.05 80
4 06/01/2023 14:24:42 -0.02, -75.24 -0.31, -74.01 140.38 80
5 06/03/2023 02:46:21 0.01, -75.25 -0.75, -78.60 382.29 80
6 06/04/2023 02:23:00 0.02, -75.26 0.37, -73.60 187.96 80
7 06/05/2023 14:44:30 -0.02, -75.27 0.63, -78.16 329.02 80
8 06/06/2023 14:21:09 -0.03, -75.28 -0.49, -73.16 241.29 80
9 06/08/2023 02:42:50 0.03, -75.30 -0.51, -77.77 281.06 80
10 06/09/2023 02:19:29 0.04, -75.31 0.61, -72.77 289.66 80
11 06/10/2023 14:40:58 -0.04, -75.34 0.38, -77.33 225.98 80
